Hourly Weather Rudno

Today, 15 April, Thursday

Time Temperature Precipitation Wind Pressure Humidity
00:00 +2°C° 0 mm 3 mps 763 mmHg 73%
01:00 +1°C° 0 mm 3 mps 762 mmHg 74%
02:00 +1°C° 0 mm 3 mps 762 mmHg 75%
03:00 +1°C° 0 mm 3 mps 762 mmHg 76%
04:00 +1°C° 0 mm 3 mps 762 mmHg 77%
05:00 +1°C° 0 mm 3 mps 762 mmHg 77%
06:00 0°C° 0 mm 4 mps 762 mmHg 77%
07:00 +1°C° 0 mm 4 mps 762 mmHg 76%
08:00 +1°C° 0.1 mm 5 mps 762 mmHg 73%
09:00 +2°C° 0.1 mm 5 mps 762 mmHg 70%
10:00 +2°C° 0.1 mm 6 mps 762 mmHg 66%
11:00 +3°C° 0.1 mm 6 mps 762 mmHg 66%
12:00 +3°C° 0.1 mm 6 mps 762 mmHg 66%
13:00 +3°C° 0.1 mm 6 mps 762 mmHg 66%
14:00 +3°C° 0.3 mm 6 mps 761 mmHg 73%
15:00 +2°C° 0.3 mm 6 mps 761 mmHg 81%
16:00 +2°C° 0.3 mm 6 mps 761 mmHg 89%
17:00 +1°C° 0.5 mm 6 mps 761 mmHg 91%
18:00 +1°C° 0.5 mm 6 mps 761 mmHg 94%
19:00 +1°C° 0.5 mm 5 mps 760 mmHg 97%
20:00 +1°C° 0.4 mm 5 mps 760 mmHg 97%
21:00 +1°C° 0.4 mm 5 mps 760 mmHg 97%
22:00 +1°C° 0.4 mm 4 mps 760 mmHg 97%
23:00 +1°C° 0.5 mm 4 mps 760 mmHg 97%

Tomorrow, 16 April, Friday

Time Temperature Precipitation Wind Pressure Humidity
00:00 +1°C° 0.5 mm 4 mps 760 mmHg 96%
01:00 +1°C° 0.5 mm 4 mps 759 mmHg 96%
02:00 +1°C° 0.2 mm 4 mps 759 mmHg 95%
03:00 +1°C° 0.2 mm 4 mps 759 mmHg 94%
04:00 +1°C° 0.2 mm 4 mps 760 mmHg 93%
05:00 +1°C° 0.2 mm 4 mps 760 mmHg 91%
06:00 +1°C° 0.2 mm 4 mps 760 mmHg 90%
07:00 +2°C° 0.2 mm 3 mps 760 mmHg 89%
08:00 +3°C° 0 mm 4 mps 760 mmHg 83%
09:00 +5°C° 0 mm 4 mps 760 mmHg 77%
10:00 +6°C° 0 mm 4 mps 760 mmHg 71%
11:00 +6°C° 0 mm 4 mps 760 mmHg 68%
12:00 +7°C° 0 mm 4 mps 760 mmHg 65%
13:00 +8°C° 0 mm 4 mps 760 mmHg 62%
14:00 +8°C° 0 mm 4 mps 760 mmHg 63%
15:00 +8°C° 0 mm 4 mps 759 mmHg 65%
16:00 +9°C° 0 mm 3 mps 759 mmHg 66%
17:00 +8°C° 0 mm 3 mps 759 mmHg 72%
18:00 +7°C° 0 mm 3 mps 760 mmHg 78%
19:00 +5°C° 0 mm 3 mps 760 mmHg 85%
20:00 +4°C° 0.2 mm 3 mps 760 mmHg 88%
21:00 +4°C° 0.2 mm 3 mps 760 mmHg 92%
22:00 +4°C° 0.2 mm 2 mps 760 mmHg 95%
23:00 +4°C° 0.1 mm 2 mps 760 mmHg 95%

Day after tomorrow, 17 April, Saturday

Time Temperature Precipitation Wind Pressure Humidity
00:00 +4°C° 0.1 mm 2 mps 760 mmHg 95%
01:00 +4°C° 0.1 mm 2 mps 760 mmHg 95%
02:00 +4°C° 0 mm 2 mps 760 mmHg 95%
03:00 +4°C° 0 mm 2 mps 760 mmHg 95%
04:00 +4°C° 0 mm 2 mps 760 mmHg 95%
05:00 +4°C° 0 mm 2 mps 760 mmHg 94%
06:00 +5°C° 0 mm 2 mps 760 mmHg 94%
07:00 +5°C° 0 mm 2 mps 760 mmHg 93%
08:00 +5°C° 0 mm 2 mps 760 mmHg 91%
09:00 +6°C° 0 mm 2 mps 760 mmHg 88%
10:00 +7°C° 0 mm 2 mps 760 mmHg 86%
11:00 +7°C° 0 mm 2 mps 760 mmHg 86%
12:00 +7°C° 0 mm 2 mps 759 mmHg 85%
13:00 +8°C° 0 mm 2 mps 759 mmHg 84%
14:00 +7°C° 0.1 mm 2 mps 759 mmHg 87%
15:00 +7°C° 0.1 mm 2 mps 759 mmHg 90%
16:00 +7°C° 0.1 mm 2 mps 759 mmHg 93%
17:00 +7°C° 0.1 mm 2 mps 759 mmHg 94%
18:00 +7°C° 0.1 mm 2 mps 759 mmHg 95%
19:00 +7°C° 0.1 mm 2 mps 759 mmHg 97%
20:00 +7°C° 0 mm 2 mps 759 mmHg 97%
21:00 +7°C° 0 mm 2 mps 759 mmHg 97%
22:00 +6°C° 0 mm 2 mps 759 mmHg 98%
23:00 +6°C° 0.2 mm 2 mps 759 mmHg 98%

18 April, Sunday

Time Temperature Precipitation Wind Pressure Humidity
00:00 +6°C° 0.2 mm 2 mps 759 mmHg 98%
01:00 +6°C° 0.2 mm 2 mps 759 mmHg 98%
02:00 +6°C° 0.1 mm 2 mps 759 mmHg 97%
03:00 +5°C° 0.1 mm 2 mps 758 mmHg 97%
04:00 +5°C° 0.1 mm 2 mps 758 mmHg 97%
05:00 +5°C° 0 mm 2 mps 758 mmHg 95%
06:00 +6°C° 0 mm 2 mps 758 mmHg 93%
07:00 +6°C° 0 mm 2 mps 758 mmHg 91%
08:00 +8°C° 0.1 mm 2 mps 758 mmHg 85%
09:00 +9°C° 0.1 mm 3 mps 758 mmHg 79%
10:00 +10°C° 0.1 mm 3 mps 758 mmHg 73%
11:00 +10°C° 0.2 mm 3 mps 758 mmHg 71%
12:00 +10°C° 0.2 mm 3 mps 758 mmHg 70%
13:00 +12°C° 0.2 mm 2 mps 758 mmHg 68%
14:00 +12°C° 0.1 mm 2 mps 758 mmHg 67%
15:00 +12°C° 0.1 mm 2 mps 758 mmHg 66%
16:00 +12°C° 0.1 mm 2 mps 758 mmHg 65%
17:00 +10°C° 0 mm 2 mps 758 mmHg 70%
18:00 +10°C° 0 mm 1 mps 758 mmHg 75%
19:00 +9°C° 0 mm 1 mps 758 mmHg 80%
20:00 +9°C° 0 mm 1 mps 758 mmHg 82%
21:00 +8°C° 0 mm 1 mps 758 mmHg 85%
22:00 +8°C° 0 mm 1 mps 758 mmHg 87%
23:00 +7°C° 0 mm 1 mps 758 mmHg 88%

19 April, Monday

Time Temperature Precipitation Wind Pressure Humidity
00:00 +7°C° 0 mm 1 mps 758 mmHg 88%
01:00 +7°C° 0 mm 1 mps 758 mmHg 89%
02:00 +7°C° 0 mm 1 mps 758 mmHg 90%
03:00 +7°C° 0 mm 1 mps 758 mmHg 90%
04:00 +6°C° 0 mm 2 mps 757 mmHg 91%
05:00 +7°C° 0 mm 2 mps 757 mmHg 89%
06:00 +7°C° 0 mm 2 mps 757 mmHg 86%
07:00 +8°C° 0 mm 2 mps 757 mmHg 84%
08:00 +9°C° 0.1 mm 2 mps 757 mmHg 80%
09:00 +10°C° 0.1 mm 3 mps 757 mmHg 75%
10:00 +11°C° 0.1 mm 3 mps 757 mmHg 71%
11:00 +11°C° 0.2 mm 3 mps 756 mmHg 70%
12:00 +11°C° 0.2 mm 4 mps 756 mmHg 69%
13:00 +12°C° 0.2 mm 4 mps 756 mmHg 68%
14:00 +11°C° 0.2 mm 4 mps 756 mmHg 72%
15:00 +10°C° 0.2 mm 4 mps 755 mmHg 76%
16:00 +10°C° 0.2 mm 4 mps 755 mmHg 80%
17:00 +9°C° 0.2 mm 3 mps 755 mmHg 84%
18:00 +9°C° 0.2 mm 2 mps 755 mmHg 87%
19:00 +8°C° 0.2 mm 2 mps 755 mmHg 90%
20:00 +8°C° 0.2 mm 2 mps 754 mmHg 91%
21:00 +8°C° 0.2 mm 2 mps 754 mmHg 92%
22:00 +8°C° 0.2 mm 3 mps 754 mmHg 94%
23:00 +8°C° 0.1 mm 2 mps 754 mmHg 94%

20 April, Tuesday

Time Temperature Precipitation Wind Pressure Humidity
00:00 +8°C° 0.1 mm 2 mps 753 mmHg 95%
01:00 +8°C° 0.1 mm 2 mps 753 mmHg 96%
02:00 +8°C° 0.3 mm 2 mps 753 mmHg 96%
03:00 +8°C° 0.3 mm 2 mps 753 mmHg 96%
04:00 +8°C° 0.3 mm 3 mps 752 mmHg 96%
05:00 +8°C° 0.2 mm 3 mps 752 mmHg 94%
06:00 +8°C° 0.2 mm 3 mps 752 mmHg 93%
07:00 +7°C° 0.2 mm 4 mps 752 mmHg 91%
08:00 +8°C° 0 mm 4 mps 752 mmHg 88%
09:00 +8°C° 0 mm 4 mps 752 mmHg 85%
10:00 +10°C° 0 mm 4 mps 751 mmHg 82%
11:00 +10°C° 0 mm 4 mps 751 mmHg 78%
12:00 +11°C° 0 mm 4 mps 751 mmHg 75%
13:00 +12°C° 0 mm 5 mps 751 mmHg 71%
14:00 +12°C° 0.2 mm 5 mps 750 mmHg 71%
15:00 +12°C° 0.2 mm 5 mps 750 mmHg 70%
16:00 +13°C° 0.2 mm 5 mps 750 mmHg 70%
17:00 +12°C° 0.3 mm 5 mps 750 mmHg 74%
18:00 +11°C° 0.3 mm 4 mps 750 mmHg 79%
19:00 +10°C° 0.3 mm 4 mps 750 mmHg 84%
20:00 +8°C° 0.1 mm 4 mps 750 mmHg 87%
21:00 +8°C° 0.1 mm 4 mps 750 mmHg 90%
22:00 +8°C° 0.1 mm 3 mps 750 mmHg 94%
23:00 +7°C° 0 mm 3 mps 750 mmHg 95%
Show more